sat.trackr.live / text

‹ back to catalog

STARLINK-34652

NORAD 64772 · 2025-147T

PAYLOAD ACTIVE UNKNOWN

§ Identity

Operator
Country
US
Launch date
2025-07-08
Launch site
AFETR
Launch vehicle
Mass (kg)
RCS (m²)

Purposes: comms

External: N2YO · Heavens-Above · Gunter

§ Orbital elements

Epoch: 2026-09-20T14:28:36.136992Z

Period
93.85 min
Inclination
53.1619°
Eccentricity
0.0001507
Mean motion
15.34402784 rev/d
Perigee alt
461.7 km
Apogee alt
463.7 km
Semi-major
6,840.8 km
B*
7.3859e-4
RAAN
53.1570°
Arg perigee
87.7765°
Mean anomaly
272.3410°
Rev number
6,865

§ Raw data

STARLINK-346521 64772U 25147T   26263.60319603  .00024663  00000+0  73859-3 0  99972 64772  53.1619  53.1570 0001507  87.7765 272.3410 15.34402784 68659

JSON: /api/v1/satellites/64772 · /tle

For live sub-satellite position, see the globe view (requires WebGL).

§ Visibility from observer

Set your observer location to see the next 7 days of passes ≥ 10°. The values pass through the URL so the page stays shareable.

No JS? Fill the form by hand. The geolocation button needs JavaScript.